Regional Weather Roundup
Issued by NWS

Home | Current Version | Previous Version | Text Only | Print | Product List | Glossary On
Versions: 1 2 3 4 5 6 7 8 9 10 11 12 13 14 15 16 17 18 19 20 21 22 23 24 25 26 27 28 29 30 31 32 33 34 35 36 37 38 39 40 41 42 43 44 45 46 47 48 49 50
000
ASUS43 KTOP 280508
RWRKS

WEATHER ROUNDUP FOR KANSAS
NATIONAL WEATHER SERVICE GOODLAND KS
1100 PM CST TUE JAN 27 2015

NOTE:  "FAIR" INDICATES FEW OR NO CLOUDS BELOW 12,000 FEET WITH NO
SIGNIFICANT WEATHER AND/OR OBSTRUCTIONS TO VISIBILITY.

KSZ001>006-013>018-027>032-041>047-280600-
NORTHWEST KANSAS

CITY           SKY/WX    TMP DP  RH WIND       PRES   REMARKS
GOODLAND       MOCLDY    34  27  75 CALM      29.93F
HAYS           PTCLDY    54  28  37 SW9       29.93S
HILL CITY      PTCLDY    44  27  51 W6        29.91F
RUSSELL        PTCLDY    50  32  50 SW10      29.91S
$$

KSZ061>065-074>080-084>089-280600-
SOUTHWEST KANSAS

CITY           SKY/WX    TMP DP  RH WIND       PRES   REMARKS
DODGE CITY     CLEAR     50  30  46 SW10      29.99F
ELKHART          N/A     51  33  50 SW10        N/A
GARDEN CITY    CLEAR     47  33  58 S6        29.97F
LIBERAL        CLEAR     43  28  56 S8        30.02F
PRATT          PTCLDY    46  32  57 SW12      29.98S
$$

KSZ066>073-081>083-090>101-280600-
SOUTHEAST KANSAS

CITY           SKY/WX    TMP DP  RH WIND       PRES   REMARKS
CHANUTE        CLEAR     45  32  60 SE9       30.03F
COFFEYVILLE    CLEAR     41  32  70 E3        30.04S
HUTCHINSON     CLEAR     44  34  67 CALM      29.96S
MEDICINE LODGE   N/A     56  31  38 S7        29.97F
NEWTON         CLEAR     57  34  41 SW15      29.97F
PARSONS        CLEAR     52  33  48 SE5       30.04F
WICHITA INTL   CLEAR     49  35  58 S9        29.97F
WICHITA JABRA  CLEAR     56  36  47 S13       29.97F
WICHITA MCCONL CLEAR     54  36  51 S13       29.98F
WINFIELD       CLEAR     56  31  38 S9        30.01S
$$

KSZ007>012-019>026-033>040-048>060-102>105-280600-
NORTHEAST KANSAS

CITY           SKY/WX    TMP DP  RH WIND       PRES   REMARKS
CONCORDIA      CLEAR     45  34  65 SE8       29.91F
EMPORIA        CLEAR     45  33  63 SE14      29.98F
LAWRENCE       CLEAR     39  29  67 SE10      30.05F WCI  32
MANHATTAN      CLEAR     45  34  65 E6        29.97F
MARYSVILLE     CLEAR     45  32  61 SE14      29.95F
OLATHE IND     CLEAR     42  31  64 SE10      30.06F
OLATHE EXE     CLEAR     43  31  62 SE9       30.05F
SALINA         CLEAR     50  36  58 S7        29.92S
TOPEKA BILLARD CLEAR     45  31  58 E10       30.03F
TOPEKA FORBES  CLEAR     45  31  58 SE12      30.01F
$$


USA.gov is the U.S. government's official web portal to all federal, state and local government web resources and services.